Location: Wald
(31.7579°N, 86.6655°W)
Time: 21:13:33
(UTC+00:00)

COSMOS 2428 - Pass Details

Date: 14 July 2020
Orbit: 844 x 859 km, 70.9° (Epoch: 13 August)

Event Time Altitude Azimuth Distance (km) Brightness Sun altitude
Rises 01:20:34 0° 195° (SSW) 3,385 5.7 -5.9°
Reaches altitude 10° 01:23:00 10° 195° (SSW) 2,453 5.0 -6.3°
Maximum altitude 01:28:38 80° 109° (ESE) 859 2.7 -7.3°
Drops below altitude 10° 01:34:18 10° 23° (NNE) 2,468 5.3 -8.4°
Sets 01:36:45 0° 22° (NNE) 3,408 6.0 -8.8°
